QPF
0.00 0.00 0.00 0.00 0.00 0.00 0.00 0.00 0.00 0.00 0.00 0.00 0.00 0.00 0.00 0.00 0.00 0.00 0.00 0.00 0.00 0.00 0.01 0.03 0.10 0.13 0.10 0.02 0.02 0.00 0.00 0.00 0.00 0.00 0.00 0.00 0.00 0.01 0.00 0.00 0.00 0.00 0.00 0.00 0.00
0.00 0.00 0.00 0.00 0.00 0.00 0.00 0.00 0.00 0.00 0.00 0.00 0.00 0.00 0.00 0.00 0.00 0.00 0.00 0.00 0.00 0.00 0.00 0.07 0.15 0.19 0.17 0.07 0.03 0.01 0.00 0.00 0.00 0.00 0.00 0.00 0.00 0.00 0.00 0.00 0.00 0.00 0.00 0.00 0.00
0.00 0.00 0.00 0.00 0.00 0.00 0.00 0.00 0.00 0.00 0.00 0.00 0.00 0.00 0.00 0.00 0.00 0.00 0.00 0.00 0.00 0.00 0.00 0.10 0.16 0.01 0.04 0.06 0.01 0.00 0.00 0.00 0.00 0.00 0.00 0.00 0.00 0.00 0.00 0.00 0.00 0.00 0.00 0.00 0.00
0.00 0.00 0.00 0.00 0.00 0.00 0.00 0.00 0.00 0.00 0.00 0.00 0.00 0.00 0.00 0.00 0.00 0.00 0.00 0.00 0.00 0.00 0.00 0.01 0.04 0.02 0.01 0.00 0.00 0.00 0.00 0.00 0.00 0.00 0.00 0.00 0.00 0.00 0.00 0.01 0.01 0.00 0.00 0.00 0.00
0.00 0.00 0.00 0.01 0.00 0.00 0.00 0.00 0.00 0.00 0.00 0.00 0.00 0.00 0.00 0.00 0.00 0.00 0.00 0.00 0.00 0.00 0.00 0.00 0.00 0.00 0.01 0.00 0.00 0.00 0.00 0.00 0.00 0.00 0.00 0.00 0.00 0.00 0.00 0.00 0.00 0.00 0.00 0.00 0.00
0.00 0.00 0.01 0.01 0.00 0.00 0.00 0.00 0.00 0.00 0.00 0.00 0.00 0.00 0.00 0.00 0.00 0.00 0.00 0.00 0.00 0.00 0.00 0.00 0.02 0.00 0.00 0.00 0.00 0.00 0.00 0.00 0.00 0.00 0.00 0.00 0.00 0.00 0.00 0.00 0.00 0.00 0.00 0.00 0.00
0.00 0.01 0.01 0.01 0.00 0.00 0.00 0.00 0.00 0.00 0.00 0.00 0.00 0.00 0.00 0.00 0.00 0.00 0.00 0.00 0.00 0.00 0.00 0.00 0.01 0.00 0.00 0.00 0.00 0.00 0.00 0.00 0.00 0.00 0.00 0.00 0.00 0.00 0.00 0.00 0.00 0.00 0.00 0.00 0.00
0.01 0.01 0.01 0.01 0.00 0.00 0.00 0.00 0.00 0.00 0.00 0.00 0.00 0.00 0.00 0.00 0.00 0.00 0.00 0.00 0.00 0.00 0.00 0.00 0.00 0.00 0.00 0.00 0.00 0.00 0.00 0.00 0.00 0.00 0.00 0.00 0.00 0.00 0.00 0.00 0.00 0.00 0.00 0.00 0.00
0.01 0.01 0.01 0.01 0.01 0.00 0.00 0.00 0.00 0.00 0.00 0.00 0.00 0.00 0.00 0.00 0.00 0.00 0.00 0.00 0.00 0.00 0.00 0.00 0.00 0.00 0.00 0.00 0.00 0.01 0.01 0.00 0.00 0.00 0.00 0.00 0.00 0.00 0.00 0.00 0.00 0.00 0.00 0.00 0.00
0.00 0.01 0.01 0.01 0.01 0.00 0.00 0.00 0.00 0.00 0.00 0.00 0.00 0.00 0.00 0.00 0.00 0.00 0.00 0.00 0.00 0.00 0.00 0.00 0.00 0.00 0.01 0.00 0.00 0.00 0.01 0.00 0.00 0.00 0.00 0.00 0.00 0.00 0.00 0.00 0.00 0.00 0.00 0.00 0.00
0.00 0.00 0.00 0.01 0.01 0.01 0.00 0.00 0.00 0.00 0.00 0.00 0.00 0.00 0.00 0.00 0.00 0.00 0.00 0.00 0.00 0.00 0.00 0.00 0.00 0.00 0.00 0.01 0.00 0.00 0.00 0.01 0.01 0.00 0.03 0.02 0.00 0.00 0.00 0.00 0.00 0.00 0.00 0.00 0.00
0.00 0.00 0.00 0.00 0.00 0.00 0.00 0.00 0.00 0.00 0.00 0.00 0.00 0.00 0.00 0.00 0.00 0.00 0.00 0.00 0.00 0.00 0.00 0.00 0.00 0.00 0.00 0.00 0.00 0.00 0.00 0.00 0.01 0.01 0.02 0.01 0.00 0.00 0.00 0.00 0.00 0.00 0.00 0.00 0.00
0.00 0.00 0.00 0.00 0.00 0.00 0.00 0.00 0.00 0.00 0.00 0.00 0.00 0.00 0.00 0.00 0.00 0.00 0.00 0.00 0.00 0.00 0.00 0.00 0.00 0.00 0.00 0.00 0.00 0.00 0.00 0.00 0.00 0.00 0.01 0.00 0.00 0.00 0.00 0.00 0.00 0.00 0.00 0.00 0.00
0.00 0.00 0.00 0.00 0.00 0.00 0.00 0.00 0.00 0.00 0.00 0.00 0.00 0.00 0.00 0.00 0.00 0.00 0.00 0.00 0.00 0.00 0.00 0.00 0.00 0.00 0.00 0.00 0.00 0.00 0.00 0.00 0.00 0.00 0.01 0.00 0.00 0.00 0.00 0.00 0.00 0.00 0.00 0.00 0.00
0.00 0.00 0.00 0.00 0.00 0.00 0.00 0.00 0.00 0.00 0.00 0.00 0.00 0.00 0.00 0.00 0.00 0.00 0.00 0.00 0.00 0.00 0.00 0.00 0.00 0.00 0.00 0.00 0.00 0.00 0.00 0.00 0.00 0.00 0.00 0.00 0.00 0.00 0.00 0.00 0.00 0.00 0.00 0.00 0.00
0.00 0.00 0.00 0.00 0.00 0.00 0.00 0.00 0.00 0.00 0.00 0.00 0.00 0.00 0.00 0.00 0.00 0.00 0.00 0.00 0.00 0.00 0.00 0.00 0.00 0.00 0.00 0.00 0.00 0.00 0.00 0.04 0.05 0.01 0.00 0.00 0.00 0.00 0.00 0.00 0.00 0.00 0.00 0.00 0.00
0.00 0.00 0.00 0.00 0.00 0.00 0.00 0.00 0.00 0.00 0.00 0.00 0.00 0.00 0.00 0.00 0.00 0.00 0.00 0.00 0.00 0.00 0.00 0.00 0.00 0.00 0.00 0.00 0.00 0.00 0.00 0.02 0.04 0.02 0.00 0.00 0.00 0.00 0.00 0.00 0.00 0.00 0.00 0.00 0.00
0.00 0.00 0.00 0.00 0.00 0.00 0.00 0.00 0.00 0.00 0.00 0.00 0.00 0.00 0.00 0.00 0.00 0.00 0.00 0.00 0.00 0.00 0.00 0.00 0.00 0.00 0.00 0.00 0.00 0.00 0.00 0.00 0.00 0.00 0.00 0.00 0.00 0.00 0.00 0.00 0.00 0.00 0.00 0.00 0.00
0.00 0.00 0.00 0.00 0.00 0.00 0.00 0.00 0.00 0.00 0.00 0.00 0.00 0.00 0.00 0.00 0.00 0.00 0.00 0.00 0.00 0.00 0.00 0.00 0.00 0.00 0.00 0.00 0.00 0.00 0.00 0.00 0.00 0.00 0.00 0.00 0.00 0.00 0.00 0.00 0.00 0.00 0.00 0.00 0.00
0.00 0.00 0.00 0.00 0.00 0.00 0.00 0.00 0.00 0.00 0.00 0.00 0.00 0.00 0.00 0.00 0.00 0.00 0.00 0.00 0.00 0.00 0.00 0.00 0.00 0.00 0.00 0.00 0.00 0.00 0.00 0.00 0.00 0.00 0.00 0.00 0.01 0.00 0.00 0.00 0.00 0.00 0.00 0.00 0.00
0.00 0.00 0.00 0.00 0.00 0.00 0.00 0.00 0.00 0.00 0.00 0.00 0.00 0.00 0.00 0.00 0.00 0.00 0.00 0.00 0.00 0.00 0.00 0.00 0.00 0.00 0.00 0.00 0.00 0.00 0.00 0.00 0.00 0.00 0.00 0.00 0.00 0.00 0.00 0.00 0.00 0.00 0.01 0.01 0.01
0.00 0.00 0.00 0.00 0.00 0.00 0.00 0.00 0.00 0.00 0.00 0.00 0.00 0.00 0.00 0.00 0.00 0.00 0.00 0.00 0.00 0.00 0.00 0.00 0.00 0.00 0.00 0.00 0.00 0.00 0.00 0.00 0.00 0.00 0.00 0.00 0.00 0.01 0.02 0.01 0.00 0.03 0.08 0.12 0.18
0.00 0.00 0.00 0.00 0.00 0.00 0.00 0.00 0.00 0.00 0.00 0.00 0.00 0.00 0.00 0.00 0.00 0.00 0.00 0.00 0.00 0.00 0.00 0.00 0.00 0.00 0.00 0.00 0.00 0.00 0.00 0.00 0.00 0.00 0.00 0.00 0.00 0.01 0.02 0.02 0.05 0.08 0.16 0.24 0.24
0.00 0.00 0.00 0.00 0.00 0.00 0.00 0.00 0.00 0.00 0.00 0.00 0.00 0.00 0.00 0.00 0.00 0.00 0.00 0.00 0.00 0.00 0.00 0.00 0.00 0.00 0.00 0.00 0.00 0.00 0.00 0.00 0.00 0.00 0.00 0.00 0.00 0.00 0.01 0.03 0.02 0.02 0.00 0.02 0.02
0.00 0.00 0.00 0.00 0.00 0.00 0.00 0.00 0.00 0.00 0.00 0.00 0.00 0.00 0.00 0.00 0.00 0.00 0.00 0.00 0.00 0.00 0.00 0.00 0.00 0.00 0.00 0.00 0.00 0.00 0.00 0.00 0.00 0.00 0.00 0.00 0.00 0.00 0.01 0.01 0.00 0.00 0.00 0.00 0.00
0.00 0.00 0.00 0.00 0.00 0.00 0.00 0.00 0.00 0.00 0.00 0.00 0.00 0.00 0.00 0.00 0.00 0.00 0.00 0.00 0.00 0.00 0.00 0.00 0.00 0.00 0.00 0.00 0.00 0.00 0.00 0.00 0.00 0.00 0.00 0.00 0.00 0.01 0.01 0.00 0.00 0.00 0.00 0.00 0.00
0.00 0.00 0.00 0.00 0.00 0.00 0.00 0.00 0.00 0.00 0.00 0.00 0.00 0.00 0.00 0.00 0.00 0.00 0.00 0.00 0.00 0.00 0.00 0.00 0.00 0.00 0.00 0.00 0.00 0.00 0.00 0.00 0.00 0.00 0.00 0.00 0.00 0.00 0.00 0.00 0.00 0.00 0.00 0.00 0.00
MSLP
1015.92 1015.56 1015.28 1014.81 1014.46 1014.20 1013.99 1013.61 1013.31 1013.39 1013.17 1012.93 1012.36 1011.81 1011.70 1011.20 1010.68 1010.87 1009.79 1008.25 1008.39 1009.11 1009.34 1010.16 1010.33 1010.63 1011.02 1011.50 1011.48 1011.55 1011.15 1009.99 1009.38 1008.73 1008.83 1009.49 1010.47 1011.51 1011.86 1012.42 1012.84 1013.09 1013.84 1015.02 1015.75
1015.93 1015.52 1015.25 1014.80 1014.40 1014.06 1013.91 1013.57 1013.19 1013.15 1013.02 1012.70 1012.25 1011.73 1011.39 1011.32 1010.63 1009.63 1007.74 1007.68 1008.07 1008.80 1008.96 1009.55 1010.42 1011.11 1011.73 1011.55 1011.04 1010.96 1010.15 1008.84 1008.09 1008.13 1008.70 1009.40 1010.12 1011.20 1012.20 1012.79 1013.44 1013.59 1014.59 1015.38 1015.93
1015.85 1015.51 1015.18 1014.77 1014.34 1013.97 1013.74 1013.47 1013.14 1012.82 1012.72 1012.50 1011.97 1011.64 1011.25 1011.11 1010.21 1007.90 1007.42 1007.73 1008.08 1008.31 1008.36 1009.01 1010.08 1010.70 1011.32 1011.12 1009.82 1009.72 1008.96 1007.56 1007.65 1007.65 1008.23 1009.26 1010.45 1011.09 1012.05 1013.12 1012.97 1013.29 1014.47 1015.34 1016.01
1015.81 1015.44 1015.12 1014.71 1014.25 1013.86 1013.55 1013.30 1013.04 1012.63 1012.29 1012.17 1011.75 1011.49 1011.07 1010.86 1009.61 1007.14 1007.27 1007.56 1007.84 1007.97 1008.43 1008.80 1009.51 1010.01 1010.98 1010.76 1009.85 1009.45 1007.98 1007.50 1007.68 1007.70 1008.49 1009.26 1010.30 1011.36 1011.77 1012.07 1013.01 1013.54 1013.97 1014.95 1015.85
1015.76 1015.38 1015.00 1014.62 1014.16 1013.69 1013.34 1013.13 1012.85 1012.40 1012.03 1011.83 1011.60 1011.27 1010.88 1010.00 1008.19 1007.33 1007.35 1007.44 1007.65 1007.92 1007.94 1008.74 1009.65 1009.90 1010.54 1009.97 1009.45 1008.96 1007.91 1007.31 1007.32 1007.88 1008.70 1009.40 1010.25 1011.12 1011.94 1012.36 1013.13 1013.91 1014.58 1015.14 1015.65
1015.77 1015.28 1014.88 1014.47 1014.00 1013.48 1013.08 1012.88 1012.58 1012.12 1011.75 1011.56 1011.48 1011.25 1010.59 1008.80 1007.08 1007.07 1007.11 1007.63 1007.64 1008.10 1008.57 1008.68 1009.31 1009.88 1010.08 1010.15 1009.67 1009.11 1008.47 1008.09 1008.04 1008.22 1008.87 1009.63 1010.84 1011.35 1012.56 1012.77 1013.33 1013.91 1014.43 1014.88 1015.31
1015.62 1015.13 1014.75 1014.28 1013.77 1013.23 1012.80 1012.46 1012.25 1011.70 1011.40 1011.36 1011.36 1011.06 1009.98 1007.73 1006.74 1007.09 1007.18 1007.44 1007.15 1007.51 1007.99 1008.24 1008.00 1009.17 1009.70 1009.82 1009.79 1009.42 1008.91 1009.16 1009.03 1008.78 1009.71 1010.10 1011.61 1011.94 1012.27 1012.84 1013.38 1013.90 1014.23 1014.69 1014.94
1015.48 1014.98 1014.60 1013.99 1013.54 1012.94 1012.58 1012.14 1011.79 1011.25 1010.96 1011.10 1011.18 1010.78 1009.07 1007.11 1006.90 1007.38 1007.60 1007.71 1007.60 1007.38 1007.23 1007.97 1008.55 1009.31 1009.81 1010.02 1009.97 1010.19 1010.33 1010.36 1010.12 1009.65 1010.17 1010.54 1011.89 1012.41 1012.58 1012.80 1013.28 1013.73 1014.09 1014.43 1014.70
1015.32 1014.78 1014.31 1013.68 1013.23 1012.75 1012.22 1011.80 1011.22 1010.91 1010.81 1010.91 1011.00 1010.28 1008.41 1007.64 1007.48 1007.10 1007.17 1007.46 1007.80 1008.24 1008.44 1008.81 1008.81 1010.01 1010.52 1010.91 1011.53 1011.77 1011.60 1011.43 1010.86 1010.37 1010.58 1011.14 1012.07 1012.32 1012.58 1012.72 1013.04 1013.32 1013.63 1013.79 1014.26
1015.11 1014.57 1013.99 1013.48 1012.93 1012.55 1011.87 1011.23 1010.95 1010.92 1011.03 1010.82 1010.25 1009.83 1008.02 1007.05 1006.70 1006.79 1007.02 1007.32 1007.77 1008.13 1008.85 1009.38 1009.86 1010.24 1010.73 1011.04 1011.42 1012.12 1012.16 1012.25 1011.94 1011.44 1010.91 1011.45 1011.84 1012.04 1012.35 1012.61 1012.67 1012.77 1012.85 1013.21 1013.71
1014.82 1014.27 1013.66 1013.14 1012.65 1012.46 1011.77 1011.11 1011.29 1010.94 1010.36 1009.17 1008.62 1008.13 1006.86 1006.11 1006.07 1006.59 1006.67 1007.11 1007.46 1007.96 1009.02 1009.43 1010.18 1010.58 1009.71 1010.54 1010.63 1010.91 1011.56 1011.62 1011.72 1011.34 1011.51 1011.20 1012.13 1012.13 1012.10 1012.54 1012.73 1012.64 1012.72 1012.79 1013.09
1014.52 1013.78 1013.25 1012.76 1012.35 1012.09 1012.21 1010.97 1009.60 1009.32 1009.05 1007.77 1007.63 1007.18 1006.51 1006.05 1006.17 1006.23 1006.59 1007.28 1007.68 1008.24 1008.75 1009.53 1009.21 1008.66 1009.32 1010.24 1010.71 1011.31 1011.65 1011.86 1011.95 1012.01 1012.21 1012.47 1012.37 1012.20 1012.18 1011.68 1011.54 1012.03 1012.43 1012.46 1012.77
1014.02 1013.49 1012.86 1012.40 1011.87 1011.80 1011.11 1009.56 1008.51 1008.56 1008.84 1007.43 1006.77 1006.24 1005.65 1005.78 1005.79 1005.31 1006.03 1006.56 1007.15 1008.07 1008.55 1008.70 1007.60 1007.47 1008.42 1009.47 1010.35 1011.23 1011.29 1011.60 1011.95 1012.58 1013.23 1013.37 1012.90 1012.28 1012.16 1011.68 1011.23 1011.16 1011.42 1012.02 1012.33
1013.80 1013.25 1012.60 1011.90 1011.75 1011.26 1010.00 1008.51 1008.36 1008.01 1008.67 1007.19 1006.24 1004.90 1004.98 1005.13 1005.22 1004.49 1005.01 1005.88 1006.76 1007.21 1007.79 1007.88 1006.63 1006.71 1007.42 1008.67 1009.45 1010.20 1010.23 1011.16 1012.05 1013.08 1013.59 1013.37 1013.73 1012.49 1011.97 1011.38 1011.15 1010.72 1010.99 1011.49 1012.17
1013.25 1013.02 1012.57 1012.25 1011.77 1010.69 1008.79 1008.03 1007.84 1007.93 1008.02 1006.37 1005.33 1004.18 1004.44 1004.91 1004.78 1004.55 1004.69 1005.43 1006.14 1006.69 1007.22 1007.06 1006.52 1006.53 1007.07 1007.42 1008.34 1008.75 1009.61 1011.67 1013.14 1014.17 1014.49 1014.58 1014.36 1012.08 1011.50 1011.09 1009.96 1010.01 1010.25 1010.88 1011.48
1012.84 1012.52 1012.35 1012.16 1011.87 1009.38 1008.35 1007.93 1007.77 1008.81 1007.23 1005.77 1004.72 1004.47 1004.94 1004.90 1004.89 1004.59 1004.82 1005.20 1005.70 1006.64 1007.07 1006.96 1006.42 1006.09 1005.94 1006.41 1007.11 1008.02 1010.61 1012.73 1013.91 1014.85 1015.02 1013.93 1014.08 1011.72 1010.98 1009.25 1008.89 1009.45 1009.51 1010.07 1010.76
1012.00 1011.70 1011.95 1011.22 1010.12 1008.82 1008.38 1008.73 1009.52 1009.15 1007.04 1005.92 1005.28 1005.15 1005.22 1005.41 1005.32 1005.41 1005.81 1006.22 1006.59 1007.33 1007.64 1006.84 1006.56 1005.84 1005.52 1006.01 1007.43 1008.82 1010.94 1013.70 1014.89 1015.32 1014.35 1013.67 1014.01 1010.95 1009.41 1008.72 1007.91 1008.78 1009.26 1009.61 1010.15
1011.18 1010.41 1010.51 1009.94 1009.28 1008.92 1009.07 1009.95 1010.04 1008.54 1007.24 1005.94 1005.56 1005.60 1006.12 1006.15 1005.99 1005.91 1006.21 1006.64 1006.72 1007.33 1008.08 1007.96 1006.74 1005.60 1005.18 1005.62 1006.76 1008.56 1009.57 1011.10 1013.00 1014.30 1013.95 1013.84 1013.21 1010.72 1009.66 1008.89 1008.62 1009.31 1009.66 1009.96 1010.36
1010.53 1010.24 1010.38 1008.74 1008.80 1009.40 1010.07 1010.81 1009.81 1008.66 1007.17 1006.34 1005.98 1006.24 1006.80 1006.56 1006.42 1006.43 1006.70 1006.89 1006.67 1006.93 1007.71 1008.02 1007.30 1005.63 1005.29 1005.23 1005.88 1006.98 1008.43 1009.00 1011.02 1012.75 1013.25 1012.95 1011.92 1011.18 1010.85 1011.13 1010.79 1011.13 1011.26 1011.91 1012.04
1011.48 1010.70 1009.43 1008.35 1008.44 1009.29 1010.41 1010.91 1009.72 1008.20 1006.92 1006.33 1006.43 1006.61 1007.26 1007.26 1007.20 1007.01 1007.05 1006.87 1006.72 1006.63 1007.14 1007.80 1007.45 1005.98 1005.32 1005.23 1005.76 1006.14 1007.24 1008.95 1010.62 1012.19 1012.95 1012.45 1011.97 1011.86 1012.21 1012.63 1012.73 1012.91 1013.28 1013.86 1014.15
1011.48 1010.82 1009.30 1008.51 1008.53 1010.22 1011.33 1010.76 1009.13 1007.36 1006.78 1006.29 1006.51 1006.91 1007.55 1007.75 1007.58 1007.31 1007.33 1006.94 1006.67 1006.48 1006.89 1007.62 1007.94 1006.91 1006.37 1005.99 1005.90 1006.61 1007.50 1008.78 1010.16 1011.41 1012.31 1012.95 1012.63 1012.13 1012.72 1013.41 1013.96 1014.53 1015.02 1015.34 1015.76
1012.36 1011.64 1009.49 1009.01 1010.16 1011.73 1011.51 1010.18 1008.62 1007.28 1006.37 1006.34 1006.29 1006.79 1007.31 1007.60 1007.63 1007.50 1007.34 1007.02 1006.81 1006.97 1007.49 1007.91 1008.51 1008.13 1007.05 1006.49 1006.43 1006.34 1007.15 1008.35 1010.65 1011.73 1012.40 1012.69 1012.84 1013.08 1013.64 1014.13 1014.62 1015.26 1015.61 1015.90 1016.33
1013.78 1012.76 1009.87 1009.43 1011.39 1012.19 1011.15 1010.01 1008.73 1007.52 1006.70 1006.55 1006.79 1006.94 1007.32 1007.73 1008.02 1007.88 1007.49 1006.90 1006.97 1006.99 1007.27 1007.81 1008.74 1008.96 1008.18 1007.83 1007.11 1007.33 1007.77 1008.65 1009.73 1010.81 1012.20 1013.10 1013.24 1013.67 1014.40 1014.90 1015.23 1015.19 1015.61 1015.91 1015.77
1014.36 1013.71 1012.33 1011.94 1012.48 1012.56 1011.99 1010.49 1008.98 1007.55 1007.20 1007.03 1007.34 1007.32 1007.75 1008.14 1008.28 1008.30 1008.01 1007.36 1007.18 1007.25 1007.28 1007.75 1009.58 1009.64 1009.48 1009.19 1008.93 1008.87 1008.62 1008.61 1009.78 1011.02 1012.20 1012.34 1012.96 1013.54 1014.26 1014.90 1015.68 1015.90 1016.37 1017.12 1017.43
1015.04 1015.61 1015.12 1014.46 1013.57 1013.45 1012.49 1011.30 1009.90 1008.48 1007.72 1007.49 1007.99 1008.05 1008.15 1008.57 1008.68 1008.76 1008.54 1008.19 1007.63 1007.55 1007.79 1008.59 1009.95 1010.15 1010.36 1010.14 1009.70 1009.99 1009.87 1009.49 1009.89 1010.77 1011.39 1011.41 1012.43 1013.00 1014.03 1014.89 1015.94 1016.54 1016.88 1017.35 1017.57
1016.31 1016.50 1015.67 1015.19 1014.58 1013.77 1013.03 1011.86 1010.68 1009.04 1008.30 1008.21 1008.18 1008.16 1008.27 1008.59 1008.73 1008.92 1008.96 1009.08 1008.70 1008.34 1008.85 1009.62 1010.73 1011.20 1011.86 1011.19 1010.51 1010.73 1010.61 1010.51 1010.75 1011.32 1011.90 1012.23 1013.15 1013.24 1014.68 1015.24 1016.17 1016.71 1017.04 1017.15 1017.32
1017.06 1016.76 1016.65 1016.08 1015.30 1014.46 1013.70 1012.71 1011.15 1009.98 1008.72 1008.39 1008.34 1008.45 1008.40 1008.19 1008.27 1008.46 1008.60 1009.08 1009.51 1009.80 1010.09 1010.53 1011.26 1012.15 1012.81 1012.04 1011.53 1011.60 1011.73 1011.38 1011.21 1011.50 1012.23 1012.81 1013.28 1013.91 1014.97 1015.77 1016.18 1016.42 1016.52 1016.63 1017.17
Thickness
5757 5761 5764 5768 5771 5773 5776 5780 5783 5784 5787 5789 5793 5797 5797 5802 5805 5803 5800 5819 5821 5819 5818 5809 5806 5801 5799 5789 5795 5793 5770 5770 5780 5789 5791 5804 5788 5796 5801 5790 5793 5796 5787 5782 5784
5757 5762 5765 5769 5773 5775 5777 5780 5785 5787 5790 5792 5796 5800 5801 5801 5806 5805 5828 5831 5829 5824 5819 5807 5792 5794 5779 5785 5795 5786 5776 5791 5812 5812 5800 5802 5799 5792 5785 5784 5779 5785 5786 5784 5783
5758 5762 5766 5770 5774 5776 5779 5782 5785 5790 5793 5795 5799 5801 5803 5802 5804 5818 5835 5835 5831 5829 5827 5818 5807 5797 5783 5790 5802 5800 5790 5820 5818 5820 5819 5804 5794 5801 5786 5771 5785 5782 5780 5780 5778
5758 5763 5767 5771 5775 5778 5781 5784 5787 5793 5798 5798 5802 5804 5804 5804 5783 5832 5838 5839 5837 5833 5828 5816 5806 5797 5785 5785 5805 5790 5819 5821 5820 5826 5817 5804 5806 5793 5795 5792 5797 5793 5793 5784 5776
5758 5764 5768 5772 5777 5780 5784 5787 5790 5796 5801 5802 5804 5807 5808 5804 5807 5837 5839 5841 5841 5836 5827 5817 5805 5801 5786 5797 5803 5800 5815 5827 5831 5825 5819 5818 5804 5799 5794 5801 5799 5793 5788 5781 5778
5758 5764 5769 5774 5779 5783 5787 5790 5793 5799 5803 5804 5805 5808 5810 5800 5837 5841 5843 5840 5836 5829 5821 5823 5812 5811 5801 5799 5799 5805 5812 5817 5821 5822 5821 5807 5799 5800 5793 5800 5794 5791 5786 5785 5783
5759 5765 5770 5776 5781 5786 5790 5794 5797 5803 5806 5806 5806 5811 5810 5816 5845 5842 5845 5839 5844 5837 5823 5829 5836 5817 5810 5804 5813 5812 5805 5807 5808 5815 5805 5810 5784 5783 5798 5798 5789 5788 5787 5786 5786
5761 5767 5772 5779 5783 5789 5793 5798 5801 5806 5809 5808 5808 5811 5807 5844 5847 5843 5842 5837 5842 5844 5843 5840 5834 5818 5812 5813 5808 5793 5788 5771 5801 5807 5806 5800 5761 5785 5797 5794 5788 5788 5787 5786 5787
5762 5769 5775 5782 5786 5792 5797 5802 5807 5810 5810 5809 5809 5810 5808 5840 5832 5846 5847 5835 5838 5836 5835 5834 5828 5807 5804 5781 5773 5770 5759 5766 5785 5808 5801 5789 5770 5790 5798 5795 5789 5790 5791 5791 5790
5764 5771 5778 5784 5789 5794 5801 5807 5809 5810 5810 5811 5815 5806 5821 5821 5837 5844 5849 5845 5832 5830 5819 5815 5803 5791 5786 5776 5754 5757 5760 5767 5763 5788 5799 5785 5779 5792 5797 5795 5792 5793 5795 5795 5794
5766 5773 5781 5786 5792 5795 5802 5808 5805 5802 5810 5812 5817 5816 5828 5843 5851 5838 5846 5838 5835 5823 5796 5806 5785 5770 5793 5789 5794 5790 5778 5772 5782 5799 5791 5789 5783 5786 5795 5793 5789 5790 5793 5798 5799
5768 5776 5783 5789 5794 5798 5798 5809 5816 5819 5799 5825 5824 5824 5834 5842 5822 5833 5844 5815 5810 5794 5807 5795 5776 5804 5805 5794 5789 5785 5774 5768 5782 5790 5784 5777 5778 5794 5792 5797 5801 5796 5795 5800 5800
5772 5778 5785 5791 5797 5800 5807 5817 5830 5828 5795 5814 5826 5827 5834 5837 5820 5827 5837 5823 5809 5794 5796 5783 5808 5825 5809 5790 5783 5775 5773 5772 5776 5781 5778 5773 5770 5782 5791 5799 5809 5811 5810 5805 5803
5774 5780 5787 5794 5799 5801 5809 5828 5829 5831 5768 5795 5815 5832 5839 5837 5821 5851 5848 5829 5812 5800 5802 5796 5826 5821 5806 5791 5790 5767 5798 5794 5780 5768 5750 5776 5739 5769 5788 5790 5798 5811 5809 5808 5804
5777 5780 5785 5790 5795 5801 5820 5828 5830 5820 5744 5807 5816 5853 5842 5824 5830 5834 5852 5831 5806 5806 5806 5796 5809 5809 5799 5803 5804 5793 5804 5787 5771 5754 5754 5750 5741 5767 5785 5786 5803 5809 5811 5810 5808
5778 5782 5784 5788 5789 5811 5822 5826 5820 5756 5751 5798 5818 5815 5813 5821 5823 5833 5832 5838 5831 5806 5806 5803 5823 5822 5817 5824 5818 5817 5782 5758 5754 5743 5733 5751 5745 5767 5773 5804 5813 5814 5818 5816 5813
5783 5786 5785 5791 5799 5812 5817 5803 5746 5732 5792 5791 5795 5805 5800 5799 5807 5809 5803 5796 5785 5772 5770 5794 5799 5817 5829 5811 5805 5791 5758 5709 5715 5718 5734 5753 5742 5780 5805 5816 5829 5817 5819 5822 5821
5787 5794 5794 5799 5804 5807 5802 5766 5740 5763 5769 5799 5799 5792 5784 5791 5795 5798 5789 5779 5797 5789 5757 5758 5755 5806 5824 5812 5790 5775 5768 5743 5718 5704 5731 5748 5734 5780 5804 5819 5824 5817 5818 5822 5819
5789 5792 5791 5804 5805 5799 5775 5732 5739 5754 5784 5783 5788 5775 5772 5784 5790 5787 5781 5776 5789 5785 5765 5745 5758 5809 5816 5821 5814 5796 5767 5790 5744 5741 5730 5737 5764 5784 5789 5787 5795 5799 5799 5795 5796
5775 5782 5790 5802 5802 5787 5752 5735 5749 5768 5785 5785 5766 5772 5755 5767 5770 5771 5770 5788 5788 5796 5787 5776 5757 5797 5812 5819 5812 5798 5802 5764 5745 5731 5729 5737 5754 5755 5764 5768 5777 5778 5780 5777 5778
5772 5770 5788 5796 5794 5760 5731 5732 5754 5780 5784 5778 5766 5761 5757 5758 5764 5763 5765 5781 5788 5790 5790 5775 5762 5777 5796 5790 5786 5785 5773 5762 5756 5740 5723 5718 5735 5771 5762 5764 5762 5760 5758 5757 5756
5756 5750 5781 5785 5746 5721 5731 5746 5767 5774 5786 5781 5779 5770 5760 5761 5760 5762 5762 5771 5786 5786 5772 5773 5748 5745 5769 5793 5796 5799 5788 5766 5733 5739 5725 5728 5728 5759 5755 5753 5752 5751 5752 5750 5749
5737 5736 5770 5771 5719 5721 5737 5749 5761 5765 5769 5769 5765 5772 5770 5759 5748 5755 5762 5782 5782 5780 5776 5772 5740 5723 5745 5763 5782 5773 5777 5763 5746 5737 5719 5721 5725 5747 5744 5742 5743 5747 5746 5745 5747
5734 5725 5735 5735 5726 5730 5727 5736 5742 5764 5761 5762 5758 5761 5755 5748 5748 5745 5749 5769 5772 5774 5774 5768 5729 5731 5716 5738 5750 5750 5758 5768 5751 5727 5721 5726 5730 5739 5738 5737 5731 5733 5732 5726 5724
5723 5710 5712 5702 5716 5711 5720 5726 5730 5736 5754 5750 5742 5742 5742 5730 5731 5730 5742 5747 5763 5765 5765 5756 5732 5742 5734 5738 5742 5737 5741 5750 5752 5744 5741 5745 5733 5743 5738 5732 5724 5721 5718 5715 5712
5707 5699 5701 5701 5703 5709 5707 5715 5717 5738 5742 5736 5735 5741 5734 5726 5729 5725 5731 5731 5735 5753 5752 5738 5721 5729 5715 5729 5734 5725 5732 5737 5740 5732 5729 5733 5729 5743 5728 5725 5716 5712 5710 5710 5711
5698 5697 5691 5692 5694 5698 5699 5703 5714 5722 5740 5740 5737 5729 5728 5736 5738 5742 5743 5735 5734 5735 5731 5727 5714 5708 5695 5711 5719 5699 5712 5719 5729 5728 5725 5722 5724 5722 5715 5709 5709 5707 5710 5709 5705